Location: Bothwell
(42.3833°S, 147.0000°E)
Time: 22:13:45
(UTC+11:00)

CUTE-I - Pass Details

Date: 02 October 2022
Orbit: 810 x 823 km, 98.7° (Epoch: 30 November)

Event Time Altitude Azimuth Distance (km) Brightness Sun altitude
Rises 20:34:47 0° 177° (S) 3,395 ? -14.4°
Reaches altitude 10° 20:37:24 10° 186° (S) 2,456 ? -14.9°
Maximum altitude 20:42:04 30° 245° (WSW) 1,454 ? -15.7°
Drops below altitude 10° 20:46:42 10° 305° (NW) 2,434 ? -16.5°
Sets 20:49:17 0° 315° (NW) 3,359 ? -16.9°
